Weather History for Covington, KY

Change the Weather History Date:

Sunday, November 13, 2011

  Actual Average Record
Temperature  
Mean Temperature 61 °F 46 °F  
Max Temperature 68 °F 55 °F 78 °F (1955)
Min Temperature 54 °F 37 °F 14 °F (1976)
Degree Days  
Heating Degree Days 4 19  
Month to date heating degree days 187 214  
Since 1 July heating degree days 582 576  
Cooling Degree Days 0 0  
Month to date cooling degree days 0 0  
Year to date cooling degree days 1348 1121  
Growing Degree Days 10 (Base 50)    
Moisture  
Dew Point 44 °F    
Average Humidity 49    
Maximum Humidity 63    
Minimum Humidity 35    
Precipitation  
Precipitation 0.00 in 0.11 in 1.79 in (1875)
Month to date precipitation 2.35 1.38  
Year to date precipitation 60.78 37.10  
Snow  
Snow 0.00 in 0.00 in 1.10 in (1963)
Month to date snowfall T 0.1  
Since 1 July snowfall T 0.5  
Since 1 September snowfall T 0.5  
Snow Depth 0.00 in    
Sea Level Pressure  
Sea Level Pressure 29.80 in    
Wind  
Wind Speed 17 mph (SSW)    
Max Wind Speed 28 mph    
Max Gust Speed 38 mph    
Visibility 10 miles    
Events      
T = Trace of Precipitation, MM = Missing Value Source: NWS Daily Summary

Daily Weather History Graph

Daily Weather History Graph

Search for Another Location

Airport:

Trip Planner

Search our weather history database for the weather conditions in past years. The results will help you decide how hot, cold, wet, or windy it might be!

Date:

Astronomy

Nov. 13, 2011 Rise Set
Actual Time 7:19 AM EST 5:26 PM EST
Civil Twilight 6:50 AM EST 5:54 PM EST
Nautical Twilight 6:18 AM EST 6:26 PM EST
Astronomical Twilight 5:47 AM EST 6:58 PM EST
Moon 7:35 PM EST (11/13) 9:50 AM EST (11/13)
Length of Visible Light 11h 04m
Length of Day
10h 07m
Waning Gibbous, 93% of the Moon is Illuminated
Nov 13
Waning Gibbous
Nov 18
Last Quarter
Nov 25
New
Dec 2
First Quarter
Dec 10
Full

Hourly Weather History & Observations

Time (EST) Temp. Dew Point Humidity Pressure Visibility Wind Dir Wind Speed Gust Speed Precip Events Conditions
12:52 AM 55.0 °F 30.9 °F 40% 29.93 in 10.0 mi SSW 15.0 mph 25.3 mph N/A   Overcast
1:52 AM 55.0 °F 32.0 °F 42% 29.91 in 10.0 mi South 13.8 mph 23.0 mph N/A   Overcast
2:52 AM 55.0 °F 32.0 °F 42% 29.90 in 10.0 mi South 13.8 mph 23.0 mph N/A   Overcast
3:52 AM 55.0 °F 32.0 °F 42% 29.90 in 10.0 mi SSW 16.1 mph 23.0 mph N/A   Overcast
4:52 AM 55.9 °F 34.0 °F 44% 29.88 in 10.0 mi South 16.1 mph 26.5 mph N/A   Overcast
5:52 AM 55.9 °F 36.0 °F 47% 29.86 in 10.0 mi South 15.0 mph 29.9 mph N/A   Mostly Cloudy
6:52 AM 55.9 °F 37.0 °F 49% 29.86 in 10.0 mi SSW 15.0 mph 28.8 mph N/A   Mostly Cloudy
7:52 AM 55.9 °F 39.0 °F 53% 29.86 in 10.0 mi South 21.9 mph 27.6 mph N/A   Overcast
8:52 AM 57.0 °F 41.0 °F 55% 29.83 in 10.0 mi South 15.0 mph 28.8 mph N/A   Overcast
10:52 AM 60.1 °F 45.0 °F 57% 29.80 in 10.0 mi SSW 21.9 mph 33.4 mph N/A   Overcast
11:52 AM 61.0 °F 46.9 °F 60% 29.78 in 10.0 mi South 20.7 mph 29.9 mph N/A   Overcast
12:52 PM 62.1 °F 48.0 °F 60% 29.75 in 10.0 mi SSW 15.0 mph 29.9 mph N/A   Overcast
1:52 PM 64.0 °F 50.0 °F 60% 29.73 in 10.0 mi SW 12.7 mph 25.3 mph N/A   Overcast
2:52 PM 64.9 °F 51.1 °F 61% 29.71 in 10.0 mi SSW 19.6 mph 27.6 mph N/A   Overcast
3:52 PM 66.9 °F 51.1 °F 57% 29.70 in 10.0 mi SSW 23.0 mph 38.0 mph N/A   Mostly Cloudy
4:52 PM 66.0 °F 51.1 °F 59% 29.70 in 10.0 mi SSW 12.7 mph 23.0 mph N/A   Scattered Clouds
5:52 PM 66.9 °F 51.1 °F 57% 29.70 in 10.0 mi SSW 20.7 mph 33.4 mph N/A   Mostly Cloudy
6:52 PM 66.9 °F 52.0 °F 59% 29.73 in 10.0 mi SSW 20.7 mph 26.5 mph N/A   Mostly Cloudy
7:52 PM 66.9 °F 52.0 °F 59% 29.74 in 10.0 mi SSW 17.3 mph 29.9 mph N/A   Mostly Cloudy
8:52 PM 66.9 °F 52.0 °F 59% 29.76 in 10.0 mi SSW 17.3 mph 28.8 mph N/A   Overcast
9:52 PM 66.0 °F 52.0 °F 60% 29.75 in 10.0 mi SSW 15.0 mph 29.9 mph N/A   Mostly Cloudy
10:52 PM 66.0 °F 52.0 °F 60% 29.76 in 10.0 mi SSW 16.1 mph 31.1 mph N/A   Mostly Cloudy
11:52 PM 66.0 °F 52.0 °F 60% 29.75 in 10.0 mi SSW 18.4 mph 27.6 mph N/A   Mostly Cloudy